FW5680 Weather Reports


Display with metric or nautical units.
time (UTC)temp
F
wind
direction
speed
MPH
gust
MPH
rain 1hr
in
rain 24hr
in
rain mn
in
humidity
%
barometer
mb
20260504081505 50 27 16.0 0.0 0.00 0.00 0.00 51 1014.8
20260504044537 59 40 21.0 0.0 0.00 0.00 0.00 36 1009.5
20260504043040 59 38 12.0 0.0 0.00 0.00 0.00 36 1008.8
20260504041532 59 31 11.0 0.0 0.00 0.00 0.00 35 1008.4
20260504040030 60 43 15.0 0.0 0.00 0.00 0.00 35 1008.0
20260504034530 60 27 14.0 0.0 0.00 0.00 0.00 35 1007.7
20260504033029 61 38 14.0 0.0 0.00 0.00 0.00 35 1007.4
20260504031529 62 26 17.0 0.0 0.00 0.00 0.00 34 1007.2
20260504030029 64 31 15.0 0.0 0.00 0.00 0.00 30 1006.8
20260504024529 64 22 11.0 0.0 0.00 0.00 0.00 26 1006.2
20260504023028 66 40 6.0 0.0 0.00 0.00 0.00 23 1006.0
20260504021532 69 35 8.0 0.0 0.00 0.00 0.00 22 1005.9
20260504020035 70 14 11.0 0.0 0.00 0.00 0.00 21 1006.0
20260504014534 71 360 11.0 0.0 0.00 0.00 0.00 20 1006.1
20260504013025 73 360 13.0 0.0 0.00 0.00 0.00 20 1006.1
20260504011524 74 13 14.0 0.0 0.00 0.00 0.00 19 1006.2
20260504010023 74 9 13.0 0.0 0.00 0.00 0.00 19 1006.3
20260504004522 75 340 12.0 0.0 0.00 0.00 0.00 19 1006.3
20260504003020 75 5 15.0 0.0 0.00 0.00 0.00 19 1006.5
20260504001520 76 338 15.0 0.0 0.00 0.00 0.00 18 1006.6
20260504000020 76 344 14.0 0.0 0.00 0.00 0.00 18 1006.7
20260503234521 76 344 12.0 0.0 0.00 0.00 0.00 17 1006.7
20260503233017 77 327 10.0 0.0 0.00 0.00 0.00 17 1006.7
20260503231520 77 319 9.0 0.0 0.00 0.00 0.00 17 1006.8
20260503230017 77 264 8.0 0.0 0.00 0.00 0.00 16 1007.1
20260503224513 77 338 11.0 0.0 0.00 0.00 0.00 16 1007.2
20260503223011 76 331 10.0 0.0 0.00 0.00 0.00 16 1007.4
20260503221508 76 289 12.0 0.0 0.00 0.00 0.00 16 1007.8
20260503220006 76 263 8.0 0.0 0.00 0.00 0.00 17 1008.0
20260503214518 75 296 10.0 0.0 0.00 0.00 0.00 17 1008.0
20260503213002 75 300 9.0 0.0 0.00 0.00 0.00 17 1008.4
20260503211613 75 282 12.0 0.0 0.00 0.00 0.00 16 1008.8
20260503210057 74 254 11.0 0.0 0.00 0.00 0.00 17 1009.0
20260503204557 74 298 8.0 0.0 0.00 0.00 0.00 16 1009.0
20260503203053 74 235 8.0 0.0 0.00 0.00 0.00 18 1009.3
20260503201550 74 329 8.0 0.0 0.00 0.00 0.00 19 1009.6
20260503200056 73 315 8.0 0.0 0.00 0.00 0.00 20 1009.8
20260503194545 72 322 8.0 0.0 0.00 0.00 0.00 21 1010.0
20260503193055 72 302 9.0 0.0 0.00 0.00 0.00 21 1010.2
20260503191544 72 297 6.0 0.0 0.00 0.00 0.00 21 1010.4
20260503190041 72 278 9.0 0.0 0.00 0.00 0.00 20 1010.6
20260503184546 71 302 10.0 0.0 0.00 0.00 0.00 22 1010.8
20260503183040 71 336 9.0 0.0 0.00 0.00 0.00 22 1010.9
20260503181531 70 310 11.0 0.0 0.00 0.00 0.00 21 1011.1
20260503180043 70 277 10.0 0.0 0.00 0.00 0.00 22 1011.1
20260503174541 70 331 9.0 0.0 0.00 0.00 0.00 24 1011.4
20260503173035 69 296 9.0 0.0 0.00 0.00 0.00 24 1011.5
20260503171520 68 282 8.0 0.0 0.00 0.00 0.00 27 1011.5